User: anonymous   Login
Location: NJAA Observatory
(40.6819°N, 74.8979°W)
Time: 04:55:53
(UTC-05:00)
Language:

Cosmos 2237 Rocket - Orbit

View from above orbital plane
View from above orbital plane
View from above satellite
View from above satellite

Ground track
Ground track

The orbit data is extracted from the following two-line orbital elements,

1 22566U 93016B   16341.91573209  .00000046  00000-0  48443-4 0  9998
2 22566  71.0066 110.5125 0008354  60.4625 299.7329 14.14937946224075
Epoch (UTC): 06 December 2016 21:58:39
Eccentricity: 0.0008354
inclination: 71.0066°
perigee height: 836 km
apogee height: 848 km
right ascension of ascending node: 110.5125°
argument of perigee: 60.4625°
revolutions per day: 14.14937946
mean anomaly at epoch: 299.7329°
orbit number at epoch: 22407

The dashed part of the orbit path shows where the satellite is in the earth's shadow,  

DLR